date,time,SUV Intensity [MED/Hr],UV Index,Daily total [MED],Since Last [MED]
02/09/2022,00:12:25,-0.001,0.0,0.0,0.0
02/09/2022,00:13:33,0.000,0.0,0.0,0.0
02/09/2022,00:15:25,0.000,0.0,0.0,0.0
02/09/2022,00:16:33,0.000,0.0,0.0,0.0
02/09/2022,00:18:25,0.000,0.0,0.0,0.0
02/09/2022,00:19:25,0.001,0.0,0.0,0.0
02/09/2022,00:20:25,0.000,0.0,0.0,0.0
02/09/2022,00:21:25,0.001,0.0,0.0,0.0
02/09/2022,00:22:24,0.001,0.0,0.0,0.0
02/09/2022,00:23:24,0.000,0.0,0.0,0.0
02/09/2022,00:24:32,-0.001,0.0,0.0,0.0
02/09/2022,00:25:24,0.000,0.0,0.0,0.0
02/09/2022,00:26:24,0.000,0.0,0.0,0.0
02/09/2022,00:27:24,0.000,0.0,0.0,0.0
02/09/2022,00:28:33,0.001,0.0,0.0,0.0
02/09/2022,00:30:25,0.000,0.0,0.0,0.0
02/09/2022,00:31:24,0.000,0.0,0.0,0.0
02/09/2022,00:32:25,0.000,0.0,0.0,0.0
02/09/2022,00:33:25,0.000,0.0,0.0,0.0
02/09/2022,00:34:25,0.000,0.0,0.0,0.0
02/09/2022,00:35:25,0.001,0.0,0.0,0.0
02/09/2022,00:36:24,0.000,0.0,0.0,0.0
02/09/2022,00:37:25,0.000,0.0,0.0,0.0
02/09/2022,00:38:25,0.001,0.0,0.0,0.0
02/09/2022,00:39:24,0.000,0.0,0.0,0.0
02/09/2022,00:40:24,0.000,0.0,0.0,0.0
02/09/2022,00:41:32,0.001,0.0,0.0,0.0
02/09/2022,00:43:25,-0.001,0.0,0.0,0.0
02/09/2022,00:44:25,0.000,0.0,0.0,0.0
02/09/2022,00:45:25,0.001,0.0,0.0,0.0
02/09/2022,00:46:24,0.000,0.0,0.0,0.0
02/09/2022,00:47:23,0.000,0.0,0.0,0.0
02/09/2022,00:48:23,0.000,0.0,0.0,0.0
02/09/2022,00:49:24,0.001,0.0,0.0,0.0
02/09/2022,00:50:33,0.002,0.0,0.0,0.0
02/09/2022,00:52:25,0.001,0.0,0.0,0.0
02/09/2022,00:53:24,0.000,0.0,0.0,0.0
02/09/2022,00:54:25,0.001,0.0,0.0,0.0
02/09/2022,00:55:25,0.000,0.0,0.0,0.0
02/09/2022,00:56:24,0.001,0.0,0.0,0.0
02/09/2022,00:57:26,0.001,0.0,0.0,0.0
02/09/2022,00:58:25,0.000,0.0,0.0,0.0
02/09/2022,00:59:25,0.000,0.0,0.0,0.0
02/09/2022,01:00:25,0.000,0.0,0.0,0.0
02/09/2022,01:01:25,0.000,0.0,0.0,0.0
02/09/2022,01:02:25,0.000,0.0,0.0,0.0
02/09/2022,01:03:33,0.000,0.0,0.0,0.0
02/09/2022,01:04:25,0.001,0.0,0.0,0.0
02/09/2022,01:05:33,0.000,0.0,0.0,0.0
02/09/2022,01:07:26,0.000,0.0,0.0,0.0
02/09/2022,01:08:33,0.001,0.0,0.0,0.0
02/09/2022,01:10:26,0.000,0.0,0.0,0.0
02/09/2022,01:11:25,0.000,0.0,0.0,0.0
02/09/2022,01:12:24,0.001,0.0,0.0,0.0
02/09/2022,01:13:25,0.000,0.0,0.0,0.0
02/09/2022,01:14:25,0.001,0.0,0.0,0.0
02/09/2022,01:15:24,0.000,0.0,0.0,0.0
02/09/2022,01:16:25,0.001,0.0,0.0,0.0
02/09/2022,01:17:25,0.001,0.0,0.0,0.0
02/09/2022,01:18:25,0.001,0.0,0.0,0.0
02/09/2022,01:19:24,0.001,0.0,0.0,0.0
02/09/2022,01:20:25,0.000,0.0,0.0,0.0
02/09/2022,01:21:25,0.000,0.0,0.0,0.0
02/09/2022,01:22:25,0.001,0.0,0.0,0.0
02/09/2022,01:23:24,0.001,0.0,0.0,0.0
02/09/2022,01:24:33,0.001,0.0,0.0,0.0
02/09/2022,01:26:25,0.001,0.0,0.0,0.0
02/09/2022,01:27:24,0.000,0.0,0.0,0.0
02/09/2022,01:28:24,0.000,0.0,0.0,0.0
02/09/2022,01:29:25,0.001,0.0,0.0,0.0
02/09/2022,01:30:25,0.001,0.0,0.0,0.0
02/09/2022,01:31:24,0.001,0.0,0.0,0.0
02/09/2022,01:32:25,0.000,0.0,0.0,0.0
02/09/2022,01:33:25,0.001,0.0,0.0,0.0
02/09/2022,01:34:25,0.001,0.0,0.0,0.0
02/09/2022,01:35:24,0.001,0.0,0.0,0.0
02/09/2022,01:36:33,0.001,0.0,0.0,0.0
02/09/2022,01:37:24,0.001,0.0,0.0,0.0
02/09/2022,01:38:25,0.001,0.0,0.0,0.0
02/09/2022,01:39:34,0.001,0.0,0.0,0.0
02/09/2022,01:41:26,0.001,0.0,0.0,0.0
02/09/2022,01:42:25,0.001,0.0,0.0,0.0
02/09/2022,01:43:25,0.001,0.0,0.0,0.0
02/09/2022,01:44:25,0.001,0.0,0.0,0.0
02/09/2022,01:45:25,0.002,0.0,0.0,0.0
02/09/2022,01:46:25,0.001,0.0,0.0,0.0
02/09/2022,01:47:24,0.000,0.0,0.0,0.0
02/09/2022,01:48:24,0.001,0.0,0.0,0.0
02/09/2022,01:49:33,0.001,0.0,0.0,0.0
02/09/2022,01:50:24,0.000,0.0,0.0,0.0
02/09/2022,01:51:26,0.001,0.0,0.0,0.0
02/09/2022,01:52:25,0.001,0.0,0.0,0.0
02/09/2022,01:53:25,0.001,0.0,0.0,0.0
02/09/2022,01:54:25,0.001,0.0,0.0,0.0
02/09/2022,01:55:33,0.000,0.0,0.0,0.0
02/09/2022,01:57:25,0.001,0.0,0.0,0.0
02/09/2022,01:58:25,0.001,0.0,0.0,0.0
02/09/2022,01:59:26,0.000,0.0,0.0,0.0
02/09/2022,02:00:24,0.001,0.0,0.0,0.0
02/09/2022,02:01:33,0.002,0.0,0.0,0.0
02/09/2022,02:03:24,0.001,0.0,0.0,0.0
02/09/2022,02:04:23,0.001,0.0,0.0,0.0
02/09/2022,02:05:25,0.001,0.0,0.0,0.0
02/09/2022,02:06:25,0.000,0.0,0.0,0.0
02/09/2022,02:07:24,0.002,0.0,0.0,0.0
02/09/2022,02:08:25,0.001,0.0,0.0,0.0
02/09/2022,02:09:23,0.001,0.0,0.0,0.0
02/09/2022,02:10:22,0.001,0.0,0.0,0.0
02/09/2022,02:11:25,-0.001,0.0,0.0,0.0
02/09/2022,02:12:25,0.000,0.0,0.0,0.0
02/09/2022,02:13:25,0.001,0.0,0.0,0.0
02/09/2022,02:14:25,0.002,0.0,0.0,0.0
02/09/2022,02:15:25,0.001,0.0,0.0,0.0
02/09/2022,02:16:25,0.001,0.0,0.0,0.0
02/09/2022,02:17:33,0.001,0.0,0.0,0.0
02/09/2022,02:19:26,0.002,0.0,0.0,0.0
02/09/2022,02:20:25,0.001,0.0,0.0,0.0
02/09/2022,02:21:24,0.002,0.0,0.0,0.0
02/09/2022,02:22:24,0.001,0.0,0.0,0.0
02/09/2022,02:23:25,0.001,0.0,0.0,0.0
02/09/2022,02:24:23,0.000,0.0,0.0,0.0
02/09/2022,02:25:23,0.001,0.0,0.0,0.0
02/09/2022,02:26:25,0.000,0.0,0.0,0.0
02/09/2022,02:27:25,0.001,0.0,0.0,0.0
02/09/2022,02:28:25,0.001,0.0,0.0,0.0
02/09/2022,02:29:33,0.001,0.0,0.0,0.0
02/09/2022,02:31:25,0.001,0.0,0.0,0.0
02/09/2022,02:32:25,0.001,0.0,0.0,0.0
02/09/2022,02:33:25,0.001,0.0,0.0,0.0
02/09/2022,02:34:25,0.000,0.0,0.0,0.0
02/09/2022,02:35:25,0.000,0.0,0.0,0.0
02/09/2022,02:36:24,0.001,0.0,0.0,0.0
02/09/2022,02:37:24,0.001,0.0,0.0,0.0
02/09/2022,02:38:25,0.001,0.0,0.0,0.0
02/09/2022,02:39:25,0.001,0.0,0.0,0.0
02/09/2022,02:40:25,0.001,0.0,0.0,0.0
02/09/2022,02:41:24,0.001,0.0,0.0,0.0
02/09/2022,02:42:25,0.001,0.0,0.0,0.0
02/09/2022,02:43:25,0.001,0.0,0.0,0.0
02/09/2022,02:44:25,0.001,0.0,0.0,0.0
02/09/2022,02:45:33,0.000,0.0,0.0,0.0
02/09/2022,02:47:26,0.002,0.0,0.0,0.0
02/09/2022,02:48:25,0.001,0.0,0.0,0.0
02/09/2022,02:49:24,0.000,0.0,0.0,0.0
02/09/2022,02:50:25,0.001,0.0,0.0,0.0
02/09/2022,02:51:25,0.000,0.0,0.0,0.0
02/09/2022,02:52:25,0.002,0.0,0.0,0.0
02/09/2022,02:53:25,0.002,0.0,0.0,0.0
02/09/2022,02:54:25,0.001,0.0,0.0,0.0
02/09/2022,02:55:24,0.002,0.0,0.0,0.0
02/09/2022,02:56:25,0.001,0.0,0.0,0.0
02/09/2022,02:57:33,0.001,0.0,0.0,0.0
02/09/2022,02:59:26,0.000,0.0,0.0,0.0
02/09/2022,03:00:25,0.000,0.0,0.0,0.0
02/09/2022,03:01:25,0.001,0.0,0.0,0.0
02/09/2022,03:02:23,0.001,0.0,0.0,0.0
02/09/2022,03:03:22,0.001,0.0,0.0,0.0
02/09/2022,03:04:25,0.000,0.0,0.0,0.0
02/09/2022,03:05:25,0.001,0.0,0.0,0.0
02/09/2022,03:06:26,0.001,0.0,0.0,0.0
02/09/2022,03:07:23,0.000,0.0,0.0,0.0
02/09/2022,03:08:23,0.001,0.0,0.0,0.0
02/09/2022,03:09:25,0.001,0.0,0.0,0.0
02/09/2022,03:10:24,0.001,0.0,0.0,0.0
02/09/2022,03:11:25,0.000,0.0,0.0,0.0
02/09/2022,03:12:25,0.001,0.0,0.0,0.0
02/09/2022,03:13:25,0.001,0.0,0.0,0.0
02/09/2022,03:14:25,0.000,0.0,0.0,0.0
02/09/2022,03:15:25,0.000,0.0,0.0,0.0
02/09/2022,03:16:25,0.001,0.0,0.0,0.0
02/09/2022,03:17:24,0.001,0.0,0.0,0.0
02/09/2022,03:18:25,0.000,0.0,0.0,0.0
02/09/2022,03:19:25,0.001,0.0,0.0,0.0
02/09/2022,03:20:33,0.001,0.0,0.0,0.0
02/09/2022,03:22:25,0.002,0.0,0.0,0.0
02/09/2022,03:23:21,0.001,0.0,0.0,0.0
02/09/2022,03:24:26,0.002,0.0,0.0,0.0
02/09/2022,03:25:34,0.001,0.0,0.0,0.0
02/09/2022,03:27:25,0.001,0.0,0.0,0.0
02/09/2022,03:28:25,0.000,0.0,0.0,0.0
02/09/2022,03:29:25,0.001,0.0,0.0,0.0
02/09/2022,03:30:25,0.001,0.0,0.0,0.0
02/09/2022,03:31:25,0.001,0.0,0.0,0.0
02/09/2022,03:32:25,0.001,0.0,0.0,0.0
02/09/2022,03:33:24,0.001,0.0,0.0,0.0
02/09/2022,03:34:25,0.002,0.0,0.0,0.0
02/09/2022,03:35:25,0.001,0.0,0.0,0.0
02/09/2022,03:36:25,0.000,0.0,0.0,0.0
02/09/2022,03:37:25,0.001,0.0,0.0,0.0
02/09/2022,03:38:25,0.001,0.0,0.0,0.0
02/09/2022,03:39:25,0.001,0.0,0.0,0.0
02/09/2022,03:40:34,0.000,0.0,0.0,0.0
02/09/2022,03:42:25,0.001,0.0,0.0,0.0
02/09/2022,03:43:33,0.001,0.0,0.0,0.0
02/09/2022,03:45:26,0.001,0.0,0.0,0.0
02/09/2022,03:46:33,0.001,0.0,0.0,0.0
02/09/2022,03:48:23,0.001,0.0,0.0,0.0
02/09/2022,03:49:23,0.001,0.0,0.0,0.0
02/09/2022,03:50:25,0.001,0.0,0.0,0.0
02/09/2022,03:51:25,0.001,0.0,0.0,0.0
02/09/2022,03:52:25,0.002,0.0,0.0,0.0
02/09/2022,03:53:25,0.001,0.0,0.0,0.0
02/09/2022,03:54:24,0.001,0.0,0.0,0.0
02/09/2022,03:55:25,0.001,0.0,0.0,0.0
02/09/2022,03:56:33,0.000,0.0,0.0,0.0
02/09/2022,03:58:26,0.000,0.0,0.0,0.0
02/09/2022,03:59:25,0.001,0.0,0.0,0.0
02/09/2022,04:00:24,0.001,0.0,0.0,0.0
02/09/2022,04:01:25,0.001,0.0,0.0,0.0
02/09/2022,04:02:25,0.001,0.0,0.0,0.0
02/09/2022,04:03:25,0.001,0.0,0.0,0.0
02/09/2022,04:04:26,0.001,0.0,0.0,0.0
02/09/2022,04:05:25,0.001,0.0,0.0,0.0
02/09/2022,04:06:25,0.001,0.0,0.0,0.0
02/09/2022,04:07:25,0.001,0.0,0.0,0.0
02/09/2022,04:08:33,-0.000,0.0,0.0,0.0
02/09/2022,04:10:26,0.002,0.0,0.0,0.0
02/09/2022,04:11:31,0.001,0.0,0.0,0.0
02/09/2022,04:12:23,0.001,0.0,0.0,0.0
02/09/2022,04:13:25,0.000,0.0,0.0,0.0
02/09/2022,04:14:33,0.000,0.0,0.0,0.0
02/09/2022,04:15:25,0.002,0.0,0.0,0.0
02/09/2022,04:16:33,0.001,0.0,0.0,0.0
02/09/2022,04:18:32,0.001,0.0,0.0,0.0
02/09/2022,04:19:24,0.001,0.0,0.0,0.0
02/09/2022,04:20:25,0.001,0.0,0.0,0.0
02/09/2022,04:21:25,0.000,0.0,0.0,0.0
02/09/2022,04:22:25,0.001,0.0,0.0,0.0
02/09/2022,04:23:25,0.001,0.0,0.0,0.0
02/09/2022,04:24:25,0.001,0.0,0.0,0.0
02/09/2022,04:25:25,0.001,0.0,0.0,0.0
02/09/2022,04:26:23,0.000,0.0,0.0,0.0
02/09/2022,04:27:31,0.001,0.0,0.0,0.0
02/09/2022,04:28:25,0.001,0.0,0.0,0.0
02/09/2022,04:29:25,0.000,0.0,0.0,0.0
02/09/2022,04:30:25,0.002,0.0,0.0,0.0
02/09/2022,04:31:25,0.001,0.0,0.0,0.0
02/09/2022,04:32:25,0.001,0.0,0.0,0.0
02/09/2022,04:33:25,0.000,0.0,0.0,0.0
02/09/2022,04:34:25,0.001,0.0,0.0,0.0
02/09/2022,04:35:25,0.001,0.0,0.0,0.0
02/09/2022,04:36:26,0.000,0.0,0.0,0.0
02/09/2022,04:37:26,0.001,0.0,0.0,0.0
02/09/2022,04:38:25,0.000,0.0,0.0,0.0
02/09/2022,04:39:25,0.000,0.0,0.0,0.0
02/09/2022,04:40:25,0.001,0.0,0.0,0.0
02/09/2022,04:41:25,0.001,0.0,0.0,0.0
02/09/2022,04:42:34,0.001,0.0,0.0,0.0
02/09/2022,04:44:26,0.001,0.0,0.0,0.0
02/09/2022,04:45:33,0.001,0.0,0.0,0.0
02/09/2022,04:47:26,0.001,0.0,0.0,0.0
02/09/2022,04:48:25,0.001,0.0,0.0,0.0
02/09/2022,04:49:26,0.001,0.0,0.0,0.0
02/09/2022,04:50:25,0.001,0.0,0.0,0.0
02/09/2022,04:51:25,0.000,0.0,0.0,0.0
02/09/2022,04:52:25,0.002,0.0,0.0,0.0
02/09/2022,04:53:25,0.001,0.0,0.0,0.0
02/09/2022,04:54:25,0.001,0.0,0.0,0.0
02/09/2022,04:55:25,0.000,0.0,0.0,0.0
02/09/2022,04:56:25,0.002,0.0,0.0,0.0
02/09/2022,04:57:27,0.000,0.0,0.0,0.0
02/09/2022,04:58:25,0.002,0.0,0.0,0.0
02/09/2022,04:59:25,0.001,0.0,0.0,0.0
02/09/2022,05:00:25,0.001,0.0,0.0,0.0
02/09/2022,05:01:25,0.001,0.0,0.0,0.0
02/09/2022,05:02:25,0.000,0.0,0.0,0.0
02/09/2022,05:03:25,0.001,0.0,0.0,0.0
02/09/2022,05:04:33,0.001,0.0,0.0,0.0
02/09/2022,05:06:26,0.001,0.0,0.0,0.0
02/09/2022,05:07:25,0.001,0.0,0.0,0.0
02/09/2022,05:08:25,0.001,0.0,0.0,0.0
02/09/2022,05:09:25,0.002,0.0,0.0,0.0
02/09/2022,05:10:25,0.000,0.0,0.0,0.0
02/09/2022,05:11:25,0.001,0.0,0.0,0.0
02/09/2022,05:12:25,0.001,0.0,0.0,0.0
02/09/2022,05:13:25,0.001,0.0,0.0,0.0
02/09/2022,05:14:33,0.000,0.0,0.0,0.0
02/09/2022,05:16:26,0.001,0.0,0.0,0.0
02/09/2022,05:17:25,0.001,0.0,0.0,0.0
02/09/2022,05:18:25,0.000,0.0,0.0,0.0
02/09/2022,05:19:33,0.001,0.0,0.0,0.0
02/09/2022,05:21:25,0.001,0.0,0.0,0.0
02/09/2022,05:22:25,0.001,0.0,0.0,0.0
02/09/2022,05:23:25,0.002,0.0,0.0,0.0
02/09/2022,05:24:25,0.001,0.0,0.0,0.0
02/09/2022,05:25:23,0.002,0.0,0.0,0.0
02/09/2022,05:26:24,0.002,0.0,0.0,0.0
02/09/2022,05:27:25,0.001,0.0,0.0,0.0
02/09/2022,05:28:25,0.002,0.0,0.0,0.0
02/09/2022,05:29:26,0.003,0.0,0.0,0.0
02/09/2022,05:30:25,0.003,0.0,0.0,0.0
02/09/2022,05:31:25,0.002,0.0,0.0,0.0
02/09/2022,05:32:33,0.003,0.0,0.0,0.0
02/09/2022,05:34:27,0.002,0.0,0.0,0.0
02/09/2022,05:35:25,0.002,0.0,0.0,0.0
02/09/2022,05:36:25,0.003,0.0,0.0,0.0
02/09/2022,05:37:26,0.003,0.0,0.0,0.0
02/09/2022,05:38:25,0.004,0.0,0.0,0.0
02/09/2022,05:39:25,0.002,0.0,0.0,0.0
02/09/2022,05:40:25,0.003,0.0,0.0,0.0
02/09/2022,05:41:25,0.003,0.0,0.0,0.0
02/09/2022,05:42:33,0.005,0.0,0.0,0.0
02/09/2022,05:44:26,0.004,0.0,0.0,0.0
02/09/2022,05:45:25,0.005,0.0,0.0,0.0
02/09/2022,05:46:26,0.005,0.0,0.0,0.0
02/09/2022,05:47:25,0.005,0.0,0.0,0.0
02/09/2022,05:48:25,0.005,0.0,0.0,0.0
02/09/2022,05:49:25,0.005,0.0,0.0,0.0
02/09/2022,05:50:25,0.005,0.0,0.0,0.0
02/09/2022,05:51:25,0.005,0.0,0.0,0.0
02/09/2022,05:52:25,0.006,0.0,0.0,0.0
02/09/2022,05:53:25,0.005,0.0,0.0,0.0
02/09/2022,05:54:25,0.005,0.0,0.0,0.0
02/09/2022,05:55:25,0.007,0.0,0.0,0.0
02/09/2022,05:56:25,0.006,0.0,0.0,0.0
02/09/2022,05:57:25,0.006,0.0,0.0,0.0
02/09/2022,05:58:25,0.006,0.0,0.0,0.0
02/09/2022,05:59:25,0.006,0.0,0.0,0.0
02/09/2022,06:00:33,0.006,0.0,0.0,0.0
02/09/2022,06:02:26,0.007,0.0,0.0,0.0
02/09/2022,06:03:25,0.006,0.0,0.0,0.0
02/09/2022,06:04:25,0.007,0.0,0.0,0.0
02/09/2022,06:05:26,0.008,0.0,0.001,0.001
02/09/2022,06:06:25,0.007,0.0,0.001,0.0
02/09/2022,06:07:25,0.008,0.0,0.001,0.0
02/09/2022,06:08:25,0.007,0.0,0.001,0.0
02/09/2022,06:09:25,0.007,0.0,0.001,0.0
02/09/2022,06:10:33,0.008,0.0,0.001,0.0
02/09/2022,06:12:26,0.007,0.0,0.001,0.0
02/09/2022,06:13:25,0.007,0.0,0.001,0.0
02/09/2022,06:14:25,0.006,0.0,0.002,0.001
02/09/2022,06:15:25,0.008,0.0,0.002,0.0
02/09/2022,06:16:25,0.008,0.0,0.002,0.0
02/09/2022,06:17:25,0.008,0.0,0.002,0.0
02/09/2022,06:18:25,0.008,0.0,0.002,0.0
02/09/2022,06:19:25,0.007,0.0,0.002,0.0
02/09/2022,06:20:25,0.007,0.0,0.002,0.0
02/09/2022,06:21:25,0.007,0.0,0.002,0.0
02/09/2022,06:22:25,0.006,0.0,0.003,0.001
02/09/2022,06:23:25,0.007,0.0,0.003,0.0
02/09/2022,06:24:26,0.007,0.0,0.003,0.0
02/09/2022,06:25:26,0.007,0.0,0.003,0.0
02/09/2022,06:26:25,0.006,0.0,0.003,0.0
02/09/2022,06:27:25,0.007,0.0,0.003,0.0
02/09/2022,06:28:34,0.006,0.0,0.003,0.0
02/09/2022,06:30:25,0.008,0.0,0.003,0.0
02/09/2022,06:31:25,0.008,0.0,0.004,0.001
02/09/2022,06:32:25,0.009,0.0,0.004,0.0
02/09/2022,06:33:25,0.008,0.0,0.004,0.0
02/09/2022,06:34:25,0.009,0.0,0.004,0.0
02/09/2022,06:35:25,0.009,0.0,0.004,0.0
02/09/2022,06:36:25,0.010,0.0,0.004,0.0
02/09/2022,06:37:25,0.010,0.0,0.004,0.0
02/09/2022,06:38:34,0.011,0.0,0.005,0.001
02/09/2022,06:40:26,0.012,0.0,0.005,0.0
02/09/2022,06:41:26,0.013,0.0,0.005,0.0
02/09/2022,06:42:26,0.013,0.0,0.005,0.0
02/09/2022,06:43:25,0.013,0.0,0.006,0.001
02/09/2022,06:44:25,0.014,0.0,0.006,0.0
02/09/2022,06:45:25,0.014,0.0,0.006,0.0
02/09/2022,06:46:25,0.014,0.0,0.006,0.0
02/09/2022,06:47:25,0.015,0.0,0.007,0.001
02/09/2022,06:48:26,0.017,0.0,0.007,0.0
02/09/2022,06:49:26,0.016,0.0,0.007,0.0
02/09/2022,06:50:25,0.017,0.0,0.007,0.0
02/09/2022,06:51:25,0.017,0.0,0.008,0.001
02/09/2022,06:52:26,0.018,0.0,0.008,0.0
02/09/2022,06:53:25,0.018,0.0,0.008,0.0
02/09/2022,06:54:25,0.018,0.0,0.009,0.001
02/09/2022,06:55:25,0.018,0.0,0.009,0.0
02/09/2022,06:56:25,0.018,0.0,0.009,0.0
02/09/2022,06:57:25,0.018,0.0,0.009,0.0
02/09/2022,06:58:25,0.018,0.0,0.01,0.001
02/09/2022,06:59:26,0.020,0.0,0.01,0.0
02/09/2022,07:00:26,0.018,0.0,0.01,0.0
02/09/2022,07:01:25,0.021,0.0,0.011,0.001
02/09/2022,07:02:25,0.022,0.0,0.011,0.0
02/09/2022,07:03:25,0.023,0.0,0.011,0.0
02/09/2022,07:04:25,0.023,0.0,0.012,0.001
02/09/2022,07:05:25,0.023,0.0,0.012,0.0
02/09/2022,07:06:25,0.024,0.0,0.013,0.001
02/09/2022,07:07:26,0.024,0.0,0.013,0.0
02/09/2022,07:08:26,0.025,0.0,0.013,0.0
02/09/2022,07:09:33,0.027,0.0,0.014,0.001
02/09/2022,07:11:26,0.028,0.0,0.015,0.001
02/09/2022,07:12:25,0.031,0.0,0.015,0.0
02/09/2022,07:13:26,0.031,0.0,0.016,0.001
02/09/2022,07:14:26,0.032,0.0,0.016,0.0
02/09/2022,07:15:26,0.033,0.0,0.017,0.001
02/09/2022,07:16:25,0.034,0.0,0.017,0.0
02/09/2022,07:17:25,0.035,0.0,0.018,0.001
02/09/2022,07:18:26,0.037,0.0,0.019,0.001
02/09/2022,07:19:33,0.038,0.0,0.019,0.0
02/09/2022,07:21:26,0.041,0.0,0.021,0.002
02/09/2022,07:22:34,0.042,0.0,0.021,0.0
02/09/2022,07:24:26,0.045,0.0,0.023,0.002
02/09/2022,07:25:25,0.045,0.0,0.023,0.0
02/09/2022,07:26:25,0.045,0.0,0.024,0.001
02/09/2022,07:27:24,0.046,0.0,0.025,0.001
02/09/2022,07:28:23,0.046,0.0,0.026,0.001
02/09/2022,07:29:26,0.047,0.0,0.026,0.0
02/09/2022,07:30:25,0.047,0.0,0.027,0.001
02/09/2022,07:31:26,0.047,0.0,0.028,0.001
02/09/2022,07:32:26,0.049,0.0,0.029,0.001
02/09/2022,07:33:25,0.050,0.0,0.03,0.001
02/09/2022,07:34:34,0.051,0.0,0.031,0.001
02/09/2022,07:36:24,0.053,0.0,0.032,0.001
02/09/2022,07:37:23,0.055,0.0,0.033,0.001
02/09/2022,07:38:25,0.057,0.0,0.034,0.001
02/09/2022,07:39:25,0.057,0.0,0.035,0.001
02/09/2022,07:40:25,0.059,0.0,0.036,0.001
02/09/2022,07:41:25,0.058,0.0,0.037,0.001
02/09/2022,07:42:25,0.057,0.0,0.038,0.001
02/09/2022,07:43:26,0.056,0.0,0.039,0.001
02/09/2022,07:44:33,0.055,0.0,0.04,0.001
02/09/2022,07:46:26,0.056,0.0,0.042,0.002
02/09/2022,07:47:26,0.056,0.0,0.043,0.001
02/09/2022,07:48:25,0.057,0.0,0.044,0.001
02/09/2022,07:49:26,0.060,0.0,0.045,0.001
02/09/2022,07:50:25,0.063,0.0,0.046,0.001
02/09/2022,07:51:26,0.067,0.0,0.047,0.001
02/09/2022,07:52:26,0.070,0.0,0.048,0.001
02/09/2022,07:53:26,0.073,0.0,0.049,0.001
02/09/2022,07:54:25,0.076,0.0,0.05,0.001
02/09/2022,07:55:26,0.077,0.0,0.052,0.002
02/09/2022,07:56:27,0.077,0.0,0.053,0.001
02/09/2022,07:57:25,0.076,0.0,0.054,0.001
02/09/2022,07:58:26,0.076,0.0,0.055,0.001
02/09/2022,07:59:26,0.076,0.0,0.057,0.002
02/09/2022,08:00:25,0.075,0.0,0.058,0.001
02/09/2022,08:01:26,0.076,0.0,0.059,0.001
02/09/2022,08:02:34,0.076,0.0,0.061,0.002
02/09/2022,08:04:26,0.078,0.0,0.063,0.002
02/09/2022,08:05:26,0.082,0.0,0.064,0.001
02/09/2022,08:06:25,0.083,0.0,0.066,0.002
02/09/2022,08:07:25,0.086,0.0,0.067,0.001
02/09/2022,08:08:25,0.088,0.0,0.069,0.002
02/09/2022,08:09:25,0.093,0.0,0.07,0.001
02/09/2022,08:10:25,0.096,0.0,0.072,0.002
02/09/2022,08:11:27,0.102,0.0,0.073,0.001
02/09/2022,08:12:34,0.106,0.0,0.075,0.002
02/09/2022,08:14:26,0.112,0.0,0.079,0.004
02/09/2022,08:15:26,0.114,0.0,0.081,0.002
02/09/2022,08:16:25,0.117,0.0,0.083,0.002
02/09/2022,08:17:25,0.119,0.0,0.085,0.002
02/09/2022,08:18:25,0.121,0.0,0.087,0.002
02/09/2022,08:19:26,0.122,0.0,0.089,0.002
02/09/2022,08:20:26,0.124,0.0,0.091,0.002
02/09/2022,08:21:26,0.127,0.0,0.093,0.002
02/09/2022,08:22:23,0.128,0.0,0.095,0.002
02/09/2022,08:23:24,0.131,0.0,0.097,0.002
02/09/2022,08:24:25,0.133,0.0,0.099,0.002
02/09/2022,08:25:26,0.136,0.0,0.101,0.002
02/09/2022,08:26:25,0.139,0.0,0.104,0.003
02/09/2022,08:27:26,0.140,0.0,0.106,0.002
02/09/2022,08:28:26,0.143,0.0,0.108,0.002
02/09/2022,08:29:25,0.146,0.0,0.111,0.003
02/09/2022,08:30:25,0.149,0.0,0.113,0.002
02/09/2022,08:31:34,0.151,0.0,0.116,0.003
02/09/2022,08:33:26,0.148,0.0,0.121,0.005
02/09/2022,08:34:23,0.146,0.0,0.123,0.002
02/09/2022,08:35:23,0.141,0.0,0.126,0.003
02/09/2022,08:36:25,0.135,0.0,0.128,0.002
02/09/2022,08:37:23,0.128,0.0,0.13,0.002
02/09/2022,08:38:25,0.121,0.0,0.132,0.002
02/09/2022,08:39:25,0.114,0.0,0.134,0.002
02/09/2022,08:40:26,0.108,0.0,0.136,0.002
02/09/2022,08:41:26,0.104,0.0,0.138,0.002
02/09/2022,08:42:25,0.100,0.0,0.14,0.002
02/09/2022,08:43:33,0.097,0.0,0.141,0.001
02/09/2022,08:45:26,0.094,0.0,0.144,0.003
02/09/2022,08:46:25,0.096,0.0,0.146,0.002
02/09/2022,08:47:26,0.096,0.0,0.148,0.002
02/09/2022,08:48:26,0.101,0.0,0.149,0.001
02/09/2022,08:49:23,0.101,0.0,0.151,0.002
02/09/2022,08:50:23,0.103,0.0,0.153,0.002
02/09/2022,08:51:26,0.105,0.0,0.154,0.001
02/09/2022,08:52:26,0.106,0.0,0.156,0.002
02/09/2022,08:53:26,0.108,0.0,0.158,0.002
02/09/2022,08:54:25,0.109,0.0,0.16,0.002
02/09/2022,08:55:25,0.112,0.0,0.161,0.001
02/09/2022,08:56:34,0.115,0.0,0.164,0.003
02/09/2022,08:58:26,0.121,0.0,0.167,0.003
02/09/2022,08:59:31,0.126,0.0,0.17,0.003
02/09/2022,09:00:25,0.128,0.0,0.171,0.001
02/09/2022,09:01:25,0.132,0.0,0.174,0.003
02/09/2022,09:02:25,0.136,0.0,0.176,0.002
02/09/2022,09:03:25,0.141,0.0,0.178,0.002
02/09/2022,09:04:25,0.145,0.0,0.181,0.003
02/09/2022,09:05:34,0.152,0.0,0.183,0.002
02/09/2022,09:07:26,0.158,0.0,0.188,0.005
02/09/2022,09:08:24,0.161,0.0,0.191,0.003
02/09/2022,09:09:24,0.162,0.0,0.193,0.002
02/09/2022,09:10:25,0.163,0.0,0.196,0.003
02/09/2022,09:11:25,0.163,0.0,0.199,0.003
02/09/2022,09:12:25,0.162,0.0,0.202,0.003
02/09/2022,09:13:25,0.162,0.0,0.204,0.002
02/09/2022,09:14:25,0.163,0.0,0.207,0.003
02/09/2022,09:15:34,0.162,0.0,0.21,0.003
02/09/2022,09:17:26,0.168,0.0,0.215,0.005
02/09/2022,09:18:25,0.171,0.0,0.218,0.003
02/09/2022,09:19:25,0.175,0.0,0.221,0.003
02/09/2022,09:20:25,0.181,0.0,0.224,0.003
02/09/2022,09:21:25,0.186,0.0,0.227,0.003
02/09/2022,09:22:25,0.191,0.0,0.23,0.003
02/09/2022,09:23:24,0.196,0.0,0.233,0.003
02/09/2022,09:24:24,0.200,0.0,0.237,0.004
02/09/2022,09:25:25,0.203,0.0,0.24,0.003
02/09/2022,09:26:25,0.210,0.0,0.243,0.003
02/09/2022,09:27:28,0.216,0.0,0.247,0.004
02/09/2022,09:28:23,0.221,1.0,0.251,0.004
02/09/2022,09:29:23,0.231,1.0,0.254,0.003
02/09/2022,09:30:25,0.239,1.0,0.258,0.004
02/09/2022,09:31:33,0.250,1.0,0.263,0.005
02/09/2022,09:32:25,0.255,1.0,0.267,0.004
02/09/2022,09:33:33,0.260,1.0,0.271,0.004
02/09/2022,09:35:34,0.262,1.0,0.28,0.009
02/09/2022,09:37:34,0.257,1.0,0.289,0.009
02/09/2022,09:39:26,0.250,1.0,0.297,0.008
02/09/2022,09:40:26,0.248,1.0,0.301,0.004
02/09/2022,09:41:26,0.245,1.0,0.305,0.004
02/09/2022,09:42:26,0.241,1.0,0.309,0.004
02/09/2022,09:43:34,0.238,1.0,0.314,0.005
02/09/2022,09:45:26,0.233,1.0,0.321,0.007
02/09/2022,09:46:27,0.232,1.0,0.325,0.004
02/09/2022,09:47:25,0.230,1.0,0.328,0.003
02/09/2022,09:48:26,0.230,1.0,0.332,0.004
02/09/2022,09:49:26,0.231,1.0,0.336,0.004
02/09/2022,09:50:25,0.234,1.0,0.34,0.004
02/09/2022,09:51:25,0.235,1.0,0.344,0.004
02/09/2022,09:52:25,0.235,1.0,0.348,0.004
02/09/2022,09:53:32,0.234,1.0,0.352,0.004
02/09/2022,09:54:24,0.231,1.0,0.356,0.004
02/09/2022,09:55:25,0.228,1.0,0.36,0.004
02/09/2022,09:56:34,0.225,1.0,0.364,0.004
02/09/2022,09:58:28,0.219,1.0,0.371,0.007
02/09/2022,09:59:34,0.219,1.0,0.375,0.004
02/09/2022,10:01:26,0.219,1.0,0.382,0.007
02/09/2022,10:02:34,0.219,1.0,0.386,0.004
02/09/2022,10:04:26,0.226,1.0,0.393,0.007
02/09/2022,10:05:26,0.230,1.0,0.397,0.004
02/09/2022,10:06:25,0.234,1.0,0.4,0.003
02/09/2022,10:07:26,0.238,1.0,0.404,0.004
02/09/2022,10:08:26,0.240,1.0,0.408,0.004
02/09/2022,10:09:26,0.244,1.0,0.412,0.004
02/09/2022,10:10:26,0.245,1.0,0.416,0.004
02/09/2022,10:11:25,0.247,1.0,0.42,0.004
02/09/2022,10:12:26,0.246,1.0,0.425,0.005
02/09/2022,10:13:26,0.243,1.0,0.429,0.004
02/09/2022,10:14:34,0.242,1.0,0.433,0.004
02/09/2022,10:16:26,0.240,1.0,0.441,0.008
02/09/2022,10:17:26,0.239,1.0,0.445,0.004
02/09/2022,10:18:25,0.239,1.0,0.449,0.004
02/09/2022,10:19:25,0.237,1.0,0.453,0.004
02/09/2022,10:20:25,0.237,1.0,0.457,0.004
02/09/2022,10:21:26,0.236,1.0,0.461,0.004
02/09/2022,10:22:25,0.236,1.0,0.465,0.004
02/09/2022,10:23:26,0.237,1.0,0.468,0.003
02/09/2022,10:24:34,0.239,1.0,0.473,0.005
02/09/2022,10:26:26,0.246,1.0,0.48,0.007
02/09/2022,10:27:26,0.252,1.0,0.485,0.005
02/09/2022,10:28:26,0.261,1.0,0.489,0.004
02/09/2022,10:29:33,0.274,1.0,0.494,0.005
02/09/2022,10:31:26,0.300,1.0,0.503,0.009
02/09/2022,10:32:25,0.315,1.0,0.508,0.005
02/09/2022,10:33:25,0.331,1.0,0.513,0.005
02/09/2022,10:34:25,0.348,1.0,0.519,0.006
02/09/2022,10:35:26,0.363,1.0,0.525,0.006
02/09/2022,10:36:26,0.380,1.0,0.531,0.006
02/09/2022,10:37:25,0.392,1.0,0.537,0.006
02/09/2022,10:38:26,0.406,1.0,0.544,0.007
02/09/2022,10:39:34,0.419,1.0,0.552,0.008
02/09/2022,10:41:26,0.440,1.0,0.565,0.013
02/09/2022,10:42:26,0.452,1.0,0.573,0.008
02/09/2022,10:43:26,0.463,1.0,0.58,0.007
02/09/2022,10:44:27,0.479,1.0,0.588,0.008
02/09/2022,10:45:26,0.490,1.0,0.596,0.008
02/09/2022,10:46:25,0.506,1.0,0.605,0.009
02/09/2022,10:47:24,0.523,1.0,0.613,0.008
02/09/2022,10:48:24,0.536,1.0,0.622,0.009
02/09/2022,10:49:33,0.547,1.0,0.632,0.01
02/09/2022,10:51:26,0.556,1.0,0.649,0.017
02/09/2022,10:52:26,0.557,1.0,0.659,0.01
02/09/2022,10:53:25,0.556,1.0,0.668,0.009
02/09/2022,10:54:26,0.554,1.0,0.677,0.009
02/09/2022,10:55:26,0.556,1.0,0.686,0.009
02/09/2022,10:56:27,0.561,1.0,0.696,0.01
02/09/2022,10:57:26,0.566,1.0,0.705,0.009
02/09/2022,10:58:26,0.576,1.0,0.715,0.01
02/09/2022,10:59:26,0.583,1.0,0.724,0.009
02/09/2022,11:00:26,0.592,1.0,0.734,0.01
02/09/2022,11:01:26,0.603,1.0,0.744,0.01
02/09/2022,11:02:26,0.610,1.0,0.754,0.01
02/09/2022,11:03:26,0.622,1.0,0.764,0.01
02/09/2022,11:04:34,0.637,1.0,0.776,0.012
02/09/2022,11:06:26,0.657,2.0,0.796,0.02
02/09/2022,11:07:26,0.666,2.0,0.807,0.011
02/09/2022,11:08:26,0.673,2.0,0.819,0.012
02/09/2022,11:09:25,0.677,2.0,0.83,0.011
02/09/2022,11:10:25,0.681,2.0,0.841,0.011
02/09/2022,11:11:26,0.686,2.0,0.853,0.012
02/09/2022,11:12:26,0.686,2.0,0.864,0.011
02/09/2022,11:13:25,0.683,2.0,0.875,0.011